Probability
0 0 0 0 0 0 0 0 0 0 0 0 0 0 0 0 0 0 0 0 0 0 3 81 90 74 61 52 52 48 32 3 6 0 0 0 0 0 0 0 0 0 0 0 0 0 0 0 0
0 0 0 0 0 0 0 0 0 0 0 0 0 0 0 0 0 0 0 0 0 0 3 3 90 68 29 19 16 13 10 3 3 0 0 0 0 0 0 0 0 0 0 0 0 0 0 0 0
0 0 0 0 0 0 0 0 0 0 0 0 0 0 0 0 0 0 0 0 0 0 0 3 90 45 10 6 10 3 3 0 3 0 0 0 0 0 0 0 0 0 0 0 0 0 0 0 0
0 0 0 0 0 0 0 0 0 0 0 0 0 0 0 0 0 0 0 0 0 0 0 10 65 29 3 3 3 0 0 0 0 0 0 0 0 0 0 0 0 0 0 0 0 0 0 0 0
0 0 0 0 0 0 0 0 0 0 0 0 0 0 0 0 0 0 0 0 0 0 0 10 52 19 0 0 0 3 3 0 0 0 0 0 0 0 0 0 0 0 0 0 0 0 0 0 0
0 0 0 0 0 0 0 0 0 0 0 0 0 0 0 0 0 0 0 0 3 0 3 6 48 32 10 0 3 3 6 3 0 0 0 0 0 0 0 0 0 0 0 0 0 0 0 0 0
0 0 0 0 0 0 0 0 0 0 0 0 0 0 0 0 0 0 0 3 3 3 3 6 10 6 10 3 3 0 13 13 0 0 0 0 0 0 0 0 0 0 0 0 0 0 0 0 0
0 0 0 0 0 0 0 0 0 0 0 0 0 0 0 0 3 13 13 10 10 3 3 0 0 0 0 0 3 3 0 3 0 0 0 0 0 0 0 0 0 0 0 0 0 0 0 0 0
0 0 0 0 0 0 0 0 0 0 0 0 0 0 0 0 19 26 23 26 16 13 6 3 0 0 0 0 0 0 0 0 0 0 0 0 0 0 0 0 0 0 0 0 0 0 0 0 0
0 0 0 0 0 0 0 0 0 0 0 0 0 0 0 0 45 58 52 48 39 32 16 13 10 0 0 0 0 0 0 0 0 0 0 0 0 0 0 0 0 0 0 0 0 0 0 0 0
0 0 0 0 0 0 0 0 0 0 0 0 0 0 0 0 32 52 61 55 55 45 32 26 19 6 3 0 0 0 0 0 0 0 0 0 0 0 0 0 0 0 0 0 0 0 0 0 0
0 0 0 0 0 0 0 0 0 0 0 0 0 0 0 0 13 23 32 58 58 61 58 45 35 23 6 3 0 0 0 0 0 0 0 0 0 0 0 0 0 0 0 0 0 0 0 0 0
0 0 0 0 0 0 0 0 0 0 0 0 0 0 0 0 0 0 0 23 55 74 71 68 48 35 10 3 0 0 0 0 0 0 0 0 0 0 0 0 0 0 0 0 0 0 0 0 0
0 0 0 0 0 0 0 0 0 0 0 0 0 0 0 0 0 0 0 6 23 52 77 84 65 61 23 3 0 0 0 0 0 0 0 0 0 0 0 0 0 0 0 0 0 0 0 0 0
0 0 0 0 0 0 0 0 0 0 0 0 0 0 0 0 0 0 0 0 0 16 42 77 77 74 48 10 3 0 0 0 0 0 0 0 0 0 0 0 0 0 0 0 0 0 0 0 0
0 0 0 0 0 0 0 0 0 0 0 0 0 0 0 0 0 0 0 0 0 0 6 29 71 74 58 45 3 0 0 0 0 0 0 0 0 0 0 0 0 0 0 0 0 0 0 0 0
0 0 0 0 0 0 0 0 0 0 0 0 0 0 0 0 0 0 0 0 0 0 0 3 23 58 71 48 29 0 0 0 0 0 0 0 0 0 0 0 0 0 0 0 0 0 0 0 0
0 0 0 0 0 0 0 0 0 0 0 0 0 0 0 0 0 0 0 0 0 0 0 0 0 16 55 65 55 19 3 0 0 0 0 0 0 0 0 0 0 0 0 0 0 0 0 0 0
0 0 0 0 0 0 0 0 0 0 0 0 0 0 0 0 0 0 0 0 0 0 0 0 0 3 23 48 65 55 29 10 3 0 0 0 0 0 0 0 0 0 0 0 0 0 0 0 0
0 0 0 0 0 0 0 0 0 0 0 0 0 0 0 0 0 0 0 0 0 0 0 0 0 0 3 26 42 32 26 10 13 3 0 0 0 0 0 0 0 0 0 0 0 0 0 0 0
0 0 0 0 0 0 0 0 0 0 0 0 0 0 0 0 0 0 0 0 0 0 0 0 0 0 0 6 13 0 3 3 3 3 0 0 0 0 0 0 0 0 0 0 0 0 0 0 0
0 0 0 0 0 0 0 0 0 0 0 0 0 0 0 0 0 0 0 0 0 0 0 0 0 0 0 0 0 0 0 0 0 3 3 3 0 0 0 0 0 0 0 0 0 0 0 0 0
0 0 0 0 0 0 0 0 0 0 0 0 0 0 0 0 0 0 0 0 0 0 0 0 0 0 0 0 0 0 0 0 0 0 0 3 0 0 0 0 0 0 0 0 0 0 0 0 0
0 0 0 0 0 0 0 0 0 0 0 0 0 0 0 0 0 0 0 0 0 0 0 0 0 0 0 0 0 0 0 0 0 0 0 0 0 0 0 0 0 0 0 0 0 0 0 0 0
0 0 0 0 0 0 0 0 0 0 0 0 0 0 0 0 0 0 0 0 0 0 0 0 0 0 0 0 0 0 0 0 0 0 0 0 0 0 0 0 0 0 0 0 0 0 0 0 0
0 0 0 0 0 0 0 0 0 0 0 0 0 0 0 0 0 0 0 0 0 0 0 0 0 0 0 0 0 0 0 0 0 0 0 0 0 0 0 0 0 0 0 0 0 0 0 0 0
0 0 0 0 0 0 0 0 0 0 0 0 0 0 0 0 0 0 0 0 0 0 0 0 0 0 0 0 0 0 0 0 0 0 0 0 0 0 0 0 0 0 0 0 0 0 0 0 0
0 0 0 0 0 0 0 0 0 0 0 0 0 0 0 0 0 0 0 0 0 0 0 0 0 0 0 0 0 0 0 0 0 0 0 0 0 0 0 0 0 0 0 0 0 0 0 0 0
0 0 0 0 0 0 0 0 0 0 0 0 0 0 0 0 0 0 0 0 0 0 0 0 0 0 0 0 0 0 0 0 0 0 0 0 0 0 0 0 0 0 0 0 0 0 0 0 0
0 0 0 0 0 0 0 0 0 0 0 0 0 0 0 0 0 0 0 0 0 0 0 0 0 0 0 0 0 0 0 0 0 0 0 0 0 0 0 0 0 0 0 0 0 0 0 0 0
Height
5805 5810 5815 5819 5824 5828 5832 5834 5837 5840 5843 5845 5848 5849 5852 5855 5858 5862 5862 5862 5863 5864 5864 5865 5865 5866 5866 5867 5867 5868 5868 5868 5868 5869 5869 5870 5870 5871 5871 5871 5872 5872 5872 5872 5872 5872 5871 5871 5870
5799 5805 5810 5814 5819 5824 5829 5830 5833 5837 5840 5842 5844 5846 5849 5851 5854 5856 5858 5859 5860 5861 5862 5862 5863 5863 5864 5864 5865 5865 5865 5865 5865 5866 5866 5866 5867 5867 5868 5868 5868 5869 5869 5869 5869 5869 5868 5868 5867
5794 5799 5805 5809 5815 5822 5825 5826 5829 5833 5836 5838 5840 5843 5845 5848 5851 5853 5855 5856 5857 5858 5859 5859 5860 5860 5861 5862 5862 5862 5862 5862 5863 5863 5863 5863 5863 5864 5864 5864 5865 5865 5865 5865 5865 5865 5865 5865 5864
5789 5794 5799 5805 5813 5818 5820 5822 5825 5830 5832 5834 5837 5839 5842 5845 5847 5850 5852 5853 5854 5855 5856 5856 5857 5858 5858 5859 5859 5860 5860 5860 5860 5860 5860 5860 5860 5861 5861 5861 5861 5861 5861 5861 5861 5861 5861 5861 5861
5782 5788 5793 5801 5809 5813 5815 5817 5821 5825 5828 5830 5833 5836 5839 5842 5844 5846 5848 5850 5851 5852 5853 5853 5854 5855 5855 5856 5857 5857 5857 5857 5857 5857 5857 5857 5857 5857 5858 5858 5858 5857 5858 5858 5858 5858 5857 5857 5857
5776 5782 5789 5797 5806 5809 5810 5812 5816 5820 5823 5826 5829 5832 5835 5838 5840 5842 5844 5846 5847 5848 5849 5850 5851 5851 5852 5853 5853 5854 5854 5854 5854 5854 5854 5854 5854 5854 5854 5854 5854 5854 5854 5854 5854 5854 5854 5853 5853
5771 5777 5784 5793 5800 5803 5805 5806 5810 5815 5819 5822 5824 5827 5831 5834 5835 5837 5839 5841 5843 5844 5845 5846 5846 5847 5848 5849 5850 5850 5850 5851 5851 5851 5851 5851 5851 5851 5851 5851 5851 5851 5851 5851 5851 5850 5850 5849 5849
5764 5771 5777 5786 5794 5799 5799 5800 5804 5809 5814 5817 5819 5823 5826 5828 5830 5832 5834 5836 5838 5840 5841 5842 5842 5843 5844 5845 5846 5846 5846 5847 5847 5848 5848 5848 5848 5848 5848 5848 5848 5847 5847 5847 5847 5846 5846 5845 5845
5757 5765 5772 5782 5789 5793 5794 5795 5799 5804 5809 5812 5815 5818 5821 5823 5826 5828 5830 5831 5833 5834 5836 5837 5838 5839 5840 5841 5841 5841 5842 5842 5843 5843 5844 5844 5844 5844 5844 5844 5844 5843 5843 5843 5843 5842 5841 5841 5841
5751 5759 5769 5776 5782 5786 5788 5790 5794 5798 5803 5807 5810 5814 5817 5819 5821 5823 5825 5826 5827 5828 5830 5832 5833 5834 5835 5836 5837 5837 5837 5838 5838 5839 5839 5839 5840 5840 5839 5839 5839 5839 5839 5838 5838 5838 5837 5836 5836
5746 5754 5762 5768 5773 5779 5783 5785 5788 5792 5797 5802 5806 5809 5812 5814 5816 5818 5820 5821 5822 5822 5824 5826 5828 5829 5830 5831 5832 5832 5832 5833 5833 5834 5834 5835 5835 5835 5835 5834 5834 5834 5834 5834 5833 5833 5832 5832 5831
5740 5747 5754 5759 5765 5771 5776 5780 5782 5786 5792 5796 5801 5804 5806 5809 5811 5813 5814 5815 5816 5818 5819 5821 5822 5823 5824 5825 5826 5827 5827 5828 5828 5828 5829 5829 5829 5829 5829 5829 5829 5829 5829 5828 5828 5828 5827 5826 5826
5734 5740 5746 5751 5757 5764 5770 5773 5777 5782 5786 5790 5795 5798 5800 5803 5805 5807 5809 5811 5812 5813 5814 5815 5816 5817 5818 5820 5821 5822 5822 5822 5822 5823 5824 5824 5824 5824 5824 5824 5824 5823 5823 5823 5823 5822 5822 5821 5821
5727 5732 5738 5744 5751 5757 5763 5767 5772 5779 5780 5784 5788 5791 5793 5796 5799 5802 5804 5806 5807 5808 5808 5808 5809 5810 5812 5814 5815 5815 5816 5816 5817 5817 5818 5818 5818 5818 5818 5818 5818 5818 5818 5817 5817 5817 5816 5816 5815
5719 5725 5732 5738 5744 5750 5756 5762 5768 5773 5774 5777 5782 5785 5787 5790 5792 5795 5798 5800 5801 5802 5802 5802 5803 5804 5805 5807 5808 5809 5809 5810 5811 5811 5812 5812 5812 5812 5812 5812 5812 5812 5812 5812 5811 5811 5810 5810 5810
5712 5719 5726 5734 5739 5744 5751 5758 5762 5766 5769 5772 5775 5778 5781 5784 5786 5788 5790 5792 5793 5795 5795 5796 5797 5798 5799 5800 5801 5801 5802 5803 5804 5805 5806 5806 5806 5806 5806 5805 5805 5806 5806 5805 5805 5805 5804 5804 5804
5707 5714 5722 5728 5733 5739 5744 5751 5757 5759 5763 5767 5769 5772 5775 5778 5779 5781 5781 5782 5784 5786 5787 5788 5789 5790 5791 5792 5793 5794 5794 5795 5797 5798 5799 5799 5799 5799 5799 5799 5799 5799 5799 5799 5798 5798 5798 5797 5797
5704 5710 5716 5722 5727 5733 5738 5744 5752 5754 5757 5760 5763 5766 5768 5770 5772 5772 5773 5774 5775 5777 5779 5780 5781 5782 5784 5784 5785 5786 5787 5788 5789 5790 5791 5791 5792 5792 5792 5793 5792 5792 5792 5792 5792 5791 5791 5790 5790
5697 5703 5709 5715 5721 5727 5732 5737 5745 5748 5750 5753 5756 5758 5760 5762 5764 5764 5764 5765 5767 5768 5770 5771 5772 5773 5774 5776 5776 5778 5779 5780 5781 5781 5782 5782 5783 5784 5785 5785 5785 5785 5785 5785 5785 5784 5784 5783 5782
5690 5697 5703 5709 5715 5720 5726 5730 5737 5741 5743 5745 5748 5750 5751 5753 5755 5756 5756 5757 5758 5760 5761 5762 5763 5764 5765 5766 5767 5769 5770 5771 5772 5772 5772 5774 5776 5777 5776 5776 5776 5777 5777 5777 5777 5777 5776 5776 5775
5686 5692 5698 5704 5708 5713 5719 5724 5730 5733 5735 5737 5739 5741 5743 5744 5746 5747 5748 5749 5750 5751 5752 5753 5753 5754 5755 5756 5757 5759 5760 5761 5762 5763 5764 5766 5766 5767 5766 5767 5767 5768 5768 5768 5769 5769 5769 5768 5767
5681 5687 5692 5698 5703 5707 5713 5716 5724 5724 5726 5729 5732 5733 5735 5736 5737 5738 5739 5739 5740 5741 5741 5742 5743 5743 5744 5744 5745 5747 5749 5751 5752 5753 5754 5754 5755 5756 5756 5757 5758 5758 5759 5760 5760 5760 5760 5759 5758
5677 5682 5688 5692 5697 5702 5706 5709 5717 5716 5718 5721 5724 5725 5726 5728 5728 5729 5730 5730 5730 5730 5731 5731 5731 5731 5732 5732 5733 5734 5736 5738 5740 5740 5741 5743 5744 5745 5746 5747 5748 5749 5749 5750 5750 5750 5750 5750 5750
5673 5679 5683 5687 5691 5697 5701 5703 5708 5710 5712 5714 5716 5717 5718 5719 5720 5720 5721 5721 5721 5720 5720 5720 5720 5720 5719 5719 5720 5721 5723 5724 5725 5727 5728 5730 5732 5734 5735 5737 5738 5739 5739 5740 5740 5740 5740 5740 5740
5670 5675 5680 5683 5687 5692 5695 5697 5701 5704 5706 5707 5708 5709 5710 5711 5712 5712 5712 5712 5711 5711 5710 5709 5708 5707 5706 5706 5706 5706 5707 5709 5711 5713 5714 5716 5719 5721 5723 5725 5726 5727 5728 5729 5729 5729 5730 5730 5729
5666 5671 5676 5680 5684 5687 5690 5692 5695 5698 5699 5701 5702 5703 5703 5704 5704 5704 5703 5703 5702 5701 5699 5697 5695 5694 5692 5691 5690 5690 5691 5692 5694 5696 5698 5701 5704 5708 5710 5712 5714 5715 5717 5717 5718 5719 5719 5719 5718
5663 5667 5672 5676 5679 5682 5685 5688 5690 5692 5693 5695 5696 5697 5697 5697 5696 5695 5694 5693 5691 5689 5686 5684 5681 5679 5676 5674 5672 5672 5672 5673 5676 5678 5680 5685 5689 5692 5695 5698 5701 5703 5705 5706 5707 5707 5707 5707 5707
5661 5664 5668 5671 5675 5679 5682 5684 5686 5686 5687 5689 5689 5690 5689 5689 5687 5686 5684 5681 5679 5676 5673 5669 5665 5662 5658 5655 5653 5652 5652 5653 5656 5659 5663 5667 5672 5676 5680 5684 5687 5690 5692 5694 5695 5696 5696 5696 5695
5658 5662 5664 5668 5672 5675 5678 5682 5681 5681 5682 5682 5682 5682 5681 5680 5678 5676 5673 5670 5666 5662 5657 5653 5647 5643 5638 5634 5632 5631 5631 5632 5635 5639 5644 5649 5654 5660 5665 5669 5673 5676 5679 5681 5683 5684 5685 5684 5684
5655 5659 5662 5666 5669 5671 5673 5678 5675 5676 5676 5676 5676 5675 5673 5671 5669 5666 5663 5659 5654 5648 5642 5635 5628 5621 5615 5610 5608 5608 5609 5611 5614 5619 5625 5631 5638 5644 5649 5655 5659 5663 5666 5669 5671 5672 5673 5673 5673
Wind_Speed
38 36 36 35 34 33 31 31 30 28 28 28 27 27 27 25 24 23 20 19 18 16 16 16 16 16 16 16 16 16 16 16 17 17 17 17 18 18 18 19 19 18 18 18 18 18 18 18 18
40 38 37 37 35 32 30 30 30 28 28 27 27 27 26 25 24 22 21 21 19 18 17 17 17 16 16 16 16 17 17 17 17 18 18 18 18 18 19 19 19 19 19 19 19 19 19 20 19
41 40 39 38 35 30 30 31 30 28 28 27 27 27 26 25 24 23 22 22 20 19 18 17 17 16 16 16 16 17 17 17 18 18 18 18 18 18 19 19 19 19 19 19 19 19 20 20 21
42 42 42 40 34 30 31 33 32 30 30 30 29 29 27 26 25 24 23 23 22 21 20 19 18 18 17 17 17 17 18 18 18 18 18 18 18 18 18 19 19 19 19 19 19 19 20 21 21
44 44 44 40 33 30 32 34 33 32 32 32 31 30 29 27 26 26 26 25 25 24 23 22 21 20 19 19 19 18 19 19 19 18 18 18 18 17 18 18 18 19 19 19 19 20 20 21 22
46 46 45 39 31 30 33 35 35 33 33 32 32 32 31 29 28 28 28 28 27 27 26 26 25 23 22 21 21 20 20 19 19 18 18 17 17 16 17 17 18 18 19 19 19 19 20 21 21
47 46 44 39 34 33 34 37 36 34 33 33 33 33 31 29 29 30 30 30 29 28 28 28 28 26 25 24 22 21 21 20 19 18 18 18 17 17 17 17 17 18 18 19 19 19 20 20 21
48 47 46 41 35 32 35 38 37 36 33 33 33 32 29 29 29 29 29 29 29 29 29 29 29 28 27 26 24 23 23 21 20 19 19 19 18 18 18 18 18 18 19 19 19 19 20 20 21
49 48 45 40 35 33 36 38 39 37 34 33 33 31 29 28 27 27 27 27 28 29 29 30 30 29 28 28 26 26 25 23 22 21 21 20 20 19 19 19 19 20 20 20 20 21 21 21 22
50 49 44 41 38 36 37 39 39 38 36 34 32 30 28 27 26 26 26 26 27 29 29 29 30 30 29 29 28 27 26 25 24 23 23 22 22 21 21 21 21 21 21 22 22 22 22 23 23
50 48 45 43 40 38 39 40 41 40 38 35 32 30 28 27 25 25 26 27 28 29 29 29 29 30 30 29 29 29 28 27 27 26 25 25 24 24 23 23 22 22 23 23 24 24 24 24 25
49 48 46 44 42 41 41 43 43 42 39 36 32 31 30 28 27 27 27 28 29 29 29 29 29 29 29 29 30 30 30 29 29 29 27 27 27 26 25 25 25 24 24 24 24 25 25 25 25
47 46 45 43 42 42 43 45 45 43 40 37 34 32 32 30 29 29 29 29 29 29 30 30 30 29 29 29 30 31 31 32 31 30 29 28 28 28 27 27 27 26 26 26 26 26 25 25 25
45 44 42 41 40 41 44 45 45 41 41 38 35 34 34 33 32 31 30 28 28 29 31 32 32 32 32 31 31 32 33 33 33 31 30 29 29 29 28 28 28 28 27 27 27 27 27 26 26
46 45 43 40 40 41 44 45 44 40 41 40 38 36 36 35 35 33 32 29 28 29 31 33 34 35 34 33 33 34 34 34 34 32 31 30 29 29 29 29 29 29 29 29 29 29 29 29 28
47 46 44 41 40 42 44 44 44 42 42 41 39 38 37 36 36 35 34 32 31 31 32 34 36 38 38 37 36 36 36 36 35 34 32 31 30 30 30 30 30 30 29 30 30 30 30 30 31
49 47 45 42 41 42 44 44 42 42 42 42 41 40 38 37 37 37 37 37 36 35 35 36 38 39 40 40 40 39 39 39 37 36 35 33 33 32 31 31 31 31 31 31 31 31 31 32 32
48 47 45 43 42 43 44 44 42 42 43 42 42 41 41 40 40 40 41 41 40 39 38 38 40 41 42 42 42 42 41 41 40 39 38 37 36 35 34 33 33 33 32 32 32 33 33 34 34
48 47 46 45 44 44 45 45 43 43 44 44 44 44 44 43 42 43 44 44 43 42 41 41 42 42 43 43 44 44 43 43 43 43 42 41 39 38 36 36 36 35 35 35 34 35 35 36 36
48 47 45 45 44 44 45 45 43 42 44 45 45 44 45 45 44 44 45 46 46 45 45 44 44 45 45 46 46 46 46 46 46 46 46 43 41 40 39 39 39 39 38 37 36 36 37 37 37
46 45 44 43 43 44 44 44 42 41 42 43 44 44 44 45 45 46 46 47 47 47 47 47 47 48 48 49 49 49 49 48 49 48 47 45 44 43 43 43 43 42 41 40 39 38 38 38 38
38 40 41 41 42 42 43 42 37 39 40 41 41 42 42 43 44 45 46 47 48 48 48 49 49 50 50 52 53 53 51 50 49 49 49 49 48 47 47 46 46 45 44 43 42 41 40 40 40
31 33 35 37 39 40 39 40 33 34 36 36 37 38 39 40 42 43 44 45 47 48 49 50 51 52 53 54 55 56 56 54 53 52 51 50 50 49 49 48 48 47 47 46 45 44 43 43 42
26 27 29 30 33 34 32 34 30 28 30 31 33 34 36 38 39 40 41 43 44 46 48 50 51 52 54 55 57 58 58 58 57 56 54 53 52 51 50 50 50 49 49 49 48 47 46 45 45
25 25 26 27 28 28 25 27 26 24 25 28 30 32 34 36 38 39 40 42 44 45 48 50 52 54 56 57 59 60 61 61 61 60 58 57 55 53 52 51 51 51 51 51 50 49 48 47 46
25 25 25 25 24 22 21 22 23 21 22 26 29 31 33 35 37 39 41 43 45 47 49 52 54 57 59 61 63 64 64 65 65 65 64 62 59 57 55 54 54 54 53 52 51 51 50 49 48
24 24 22 22 21 20 19 19 21 22 23 25 27 29 32 34 36 38 41 43 45 48 51 54 56 59 61 64 66 68 69 69 69 69 68 66 64 62 59 58 57 56 55 53 53 52 51 50 49
22 22 22 21 19 18 17 17 20 22 24 25 26 28 30 32 35 37 40 43 45 48 51 54 57 59 62 65 67 69 70 71 72 72 71 70 68 66 64 61 59 57 56 55 54 53 52 51 50
21 21 20 19 18 16 15 16 19 22 23 24 26 27 28 30 32 34 37 40 43 46 50 54 57 59 62 64 66 67 69 70 72 72 72 71 70 69 66 63 61 59 58 57 56 53 52 51 51
19 18 18 18 16 14 14 17 19 21 21 21 22 24 26 28 30 32 35 38 41 45 49 53 56 59 61 61 62 63 64 66 67 68 68 68 68 67 65 64 61 60 58 57 55 53 52 51 51
Wind_Direction
224 222 220 220 219 220 222 225 227 228 230 231 233 238 242 245 249 252 252 253 255 256 256 257 260 264 269 273 277 280 282 282 282 282 282 280 278 276 275 276 277 280 283 283 282 280 278 276 275
223 221 219 218 218 217 219 223 226 226 229 232 234 237 240 244 246 249 251 253 255 255 254 256 259 262 267 273 277 280 282 284 286 286 286 285 285 284 283 281 281 281 282 282 282 279 276 274 273
222 220 219 217 215 214 218 224 225 225 229 231 234 237 240 243 246 249 250 253 255 255 254 255 259 262 267 272 277 281 284 286 288 288 288 288 289 290 289 287 284 282 281 282 282 280 277 275 273
221 219 219 217 212 212 220 225 227 227 230 233 236 239 241 244 247 250 252 254 256 257 258 258 260 262 267 271 276 281 284 286 288 289 289 291 292 293 292 291 288 284 282 281 281 281 279 276 274
221 220 219 216 211 215 223 229 230 231 232 235 238 242 245 247 250 252 254 256 258 259 261 263 264 265 267 270 273 277 281 284 287 289 290 292 293 293 293 294 291 288 284 281 281 281 281 278 276
222 221 220 217 213 220 228 232 233 234 235 237 240 242 245 248 249 251 254 256 259 261 264 266 267 267 267 269 271 274 277 280 283 287 289 291 292 293 294 294 292 289 285 281 279 279 279 278 277
224 223 222 219 216 222 229 234 235 235 235 238 241 244 245 245 247 250 252 255 257 259 262 265 267 268 269 269 270 272 274 276 279 283 285 287 289 290 290 291 290 288 285 282 279 278 278 277 275
225 225 224 221 219 223 231 236 237 236 236 238 241 243 244 245 247 250 252 253 255 257 259 262 265 267 269 270 270 270 272 274 277 280 282 283 285 286 286 287 287 286 285 282 280 279 278 278 277
226 227 226 224 224 225 232 237 238 238 237 237 238 239 241 245 247 250 251 252 253 255 257 259 262 264 267 268 269 269 271 273 276 278 280 282 283 284 284 285 285 284 283 283 282 280 280 280 280
226 228 228 228 227 226 231 236 239 240 238 236 236 236 238 241 244 246 248 249 250 251 253 256 259 261 263 265 267 269 271 273 275 277 278 280 281 282 282 282 282 282 282 282 282 282 282 282 282
227 229 230 231 230 228 229 235 239 240 240 238 237 237 237 239 241 243 244 246 247 250 252 255 257 259 261 263 265 267 270 272 274 275 277 278 279 279 280 280 280 281 281 282 282 282 283 283 283
227 229 231 232 231 227 227 232 236 239 240 240 240 240 240 241 241 242 243 244 246 249 252 254 256 259 260 260 262 264 267 269 271 272 274 276 277 278 278 278 278 279 281 281 281 282 282 283 283
226 229 231 232 230 227 225 228 233 237 240 241 241 242 243 244 245 245 246 247 248 249 251 252 253 254 256 258 260 263 264 266 267 269 272 273 275 276 276 276 276 277 279 280 281 281 281 282 283
225 227 230 230 228 224 223 225 230 233 239 242 242 243 244 246 247 248 249 250 250 249 250 251 251 251 251 254 257 259 261 263 265 268 270 271 272 274 275 275 275 276 277 278 279 280 280 282 284
224 226 228 228 226 222 222 223 227 229 237 242 243 244 245 247 249 250 252 251 250 249 249 251 252 253 254 254 255 257 259 262 264 266 268 269 271 272 273 273 273 275 276 277 278 279 280 282 284
224 226 227 227 226 223 224 222 225 228 235 242 246 248 249 251 253 255 255 254 251 248 247 248 250 253 254 254 254 255 257 259 262 264 266 268 269 271 271 272 273 274 275 276 277 279 280 282 284
223 226 227 228 227 225 226 224 224 232 235 241 247 251 253 254 256 258 258 256 253 249 247 248 249 251 253 254 254 255 256 258 260 262 264 265 266 268 269 270 271 273 273 275 277 279 280 282 285
224 228 229 231 230 229 229 229 228 236 239 242 247 252 255 256 257 258 257 256 255 253 251 250 251 252 253 255 255 256 257 258 260 261 262 262 263 265 267 268 270 271 272 273 275 277 279 282 284
226 228 230 232 232 232 232 233 233 238 243 246 249 252 254 256 257 257 258 257 256 255 254 253 253 254 255 256 257 257 258 258 259 259 259 260 261 263 266 267 269 270 270 271 273 275 278 280 282
226 229 232 235 236 236 236 238 240 242 246 249 252 254 256 257 258 258 258 258 258 258 257 256 256 256 256 256 256 257 257 257 257 258 259 261 262 263 264 265 266 268 269 271 272 275 277 279 281
227 230 234 237 239 241 241 242 245 247 248 251 253 255 256 258 258 259 260 260 261 261 261 260 259 258 258 258 257 257 256 256 257 258 259 260 260 260 260 261 263 265 268 270 272 274 275 277 279
227 231 235 239 241 243 244 246 247 251 252 253 255 257 259 260 261 261 262 262 262 262 262 261 261 261 260 259 258 258 257 256 256 256 256 256 256 257 259 260 262 265 267 270 271 273 274 276 278
223 228 234 238 242 245 247 250 248 251 254 255 256 258 259 261 262 263 264 265 265 265 264 264 263 262 262 261 260 259 259 258 256 255 255 255 256 258 259 260 262 264 266 268 270 272 273 275 277
216 223 229 235 240 245 247 252 251 249 253 255 257 258 259 261 263 264 265 266 267 268 268 268 267 266 266 265 263 262 260 259 258 256 255 255 255 256 257 259 261 263 265 267 269 270 272 274 277
213 220 226 231 237 242 244 249 252 248 246 249 253 256 259 261 264 266 267 268 269 270 270 270 269 268 267 266 265 263 262 260 259 258 256 255 255 255 256 257 259 261 263 265 268 270 272 274 276
213 220 225 230 234 239 238 242 246 245 241 245 250 255 259 263 266 268 270 271 272 272 272 271 270 269 267 266 264 263 261 260 259 258 257 256 255 254 254 255 257 259 262 264 267 269 271 273 276
214 220 224 229 230 231 231 234 241 244 246 248 253 258 263 266 269 271 273 273 274 273 272 272 270 269 267 265 263 261 260 258 257 256 256 256 255 254 253 254 256 258 260 262 265 267 270 272 274
215 217 220 223 224 224 226 233 242 249 256 261 265 267 270 272 273 275 276 277 277 277 276 275 273 271 268 266 263 261 259 257 256 255 254 254 254 253 253 253 254 255 257 260 263 265 268 271 273
211 213 217 220 221 224 229 240 247 255 261 267 271 274 276 278 280 282 283 284 285 284 283 281 279 276 272 268 265 261 258 256 254 253 252 252 252 253 253 252 252 254 255 258 261 264 267 270 272
208 210 214 219 223 233 242 251 253 260 265 269 273 278 283 287 290 291 292 293 293 293 292 289 285 282 277 272 267 263 258 255 253 251 250 250 250 251 252 252 252 253 254 257 259 262 265 268 272